Home > Weather > Keratsini > Past weeks

Flag for Greece Weather for the Past 2 Weeks in Keratsini, Greece

Now
68 °F

Scattered clouds.


Feels Like: 68 °F
Forecast: 55 / 71 °F
Wind: 3 mph from North

Location: Elefsis Airport

Current Time: Feb 14, 2016 at 4:48:22 PM

Latest Report: Feb 14, 2016 at 4:20 PM


Visibility: N/A

Pressure: 29.80 "Hg

Humidity: 60%

Dew point: 54 °F

Location of KeratsiniLocation

Historic Weather in Keratsini — Graph

°F

Keratsini Temperature Yesterday

Maximum temperature yesterday: 66 °F (at 11:50 AM)
Minimum temperature yesterday: 50 °F (at 6:50 AM)
Average temperature yesterday: 58 °F

High & Low Weather Summary for the Past Weeks

 TemperatureHumidityPressure
High70 °F (Feb 2, 11:20 AM)100% (Feb 14, 4:50 AM)30.42 "Hg (Feb 14, 4:50 AM)
Low34 °F (Feb 7, 4:50 AM)26% (Feb 11, 12:50 PM)29.68 "Hg (Feb 13, 2:50 PM)
Average52 °F72%30.09 "Hg
* Reported Jan 30 3:20 PM — Feb 14 3:50 PM, Keratsini, Weather by CustomWeather, © 2016

Note: Actual official high and low records may vary slightly from our data, if they occured in-between our weather recording intervals... More about our weather records

Advertising

Keratsini Weather History for the Previous 24 Hours

 ConditionsComfort  
Time TempWeatherWind HumidityBarometerVisibility
3:50 PM
Sun, Feb 14
66 °FScattered clouds.No wind64%29.80 "HgN/A
3:20 PM68 °FBroken clouds.3 mph60%29.80 "HgN/A
2:50 PM68 °FScattered clouds.No wind56%29.80 "HgN/A
2:20 PM70 °FScattered clouds.3 mph57%29.80 "HgN/A
1:50 PM70 °FPartly sunny.5 mph53%29.80 "HgN/A
1:20 PM68 °FPartly sunny.3 mph56%29.80 "HgN/A
12:50 PM70 °FPartly sunny.6 mph53%29.80 "HgN/A
12:20 PM68 °FPartly sunny.5 mph60%29.83 "HgN/A
11:50 AM68 °FBroken clouds.3 mph60%29.83 "HgN/A
11:20 AM66 °FPartly sunny.No wind64%29.83 "HgN/A
10:50 AM63 °FPartly sunny.No wind68%29.83 "HgN/A
10:20 AM61 °FPartly sunny.No wind77%29.83 "HgN/A
9:50 AM57 °FPartly sunny.No wind82%29.83 "HgN/A
9:20 AM55 °FPartly sunny.5 mph88%29.80 "HgN/A
8:50 AM55 °FScattered clouds.3 mph88%29.80 "HgN/A
8:20 AM54 °FScattered clouds.6 mph88%29.80 "HgN/A
7:50 AM52 °FScattered clouds.5 mph88%29.80 "HgN/A
7:20 AM50 °FBroken clouds.5 mph88%29.77 "HgN/A
6:50 AM52 °FPassing clouds.3 mph88%29.80 "HgN/A
5:50 AM52 °FPassing clouds.5 mph88%29.77 "HgN/A
5:20 AM50 °FPassing clouds.No wind88%29.77 "HgN/A
4:50 AM50 °FPassing clouds.No wind100%29.77 "HgN/A
3:50 AM52 °FPassing clouds.5 mph82%29.77 "HgN/A
3:20 AM52 °FPassing clouds.3 mph82%29.77 "HgN/A
2:50 AM52 °FPassing clouds.3 mph82%29.77 "HgN/A
2:20 AM52 °FPassing clouds.3 mph82%29.77 "HgN/A
1:50 AM54 °FPassing clouds.No wind82%29.77 "HgN/A
1:20 AM52 °FPassing clouds.No wind88%29.77 "HgN/A
12:50 AM50 °FPassing clouds.3 mph88%29.77 "HgN/A
12:20 AM52 °FPassing clouds.6 mph82%29.77 "HgN/A
11:50 PM
Sat, Feb 13
52 °FPassing clouds.3 mph82%29.77 "HgN/A
11:20 PM52 °FPassing clouds.3 mph82%29.74 "HgN/A
10:50 PM52 °FPassing clouds.3 mph82%29.74 "HgN/A
10:20 PM52 °FPassing clouds.3 mph82%29.74 "HgN/A
9:50 PM55 °FPassing clouds.No wind77%29.74 "HgN/A
9:20 PM59 °FPassing clouds.No wind68%29.74 "HgN/A
8:50 PM55 °FPassing clouds.3 mph77%29.71 "HgN/A
8:20 PM55 °FPassing clouds.5 mph77%29.71 "HgN/A
7:50 PM57 °FPassing clouds.3 mph77%29.71 "HgN/A
7:20 PM59 °FPassing clouds.3 mph72%29.71 "HgN/A
6:50 PM61 °FPassing clouds.5 mph68%29.71 "HgN/A
6:20 PM61 °FPassing clouds.5 mph68%29.71 "HgN/A
5:50 PM63 °FBroken clouds.6 mph64%29.71 "HgN/A
5:20 PM63 °FBroken clouds.5 mph64%29.68 "HgN/A
4:50 PM63 °FPartly sunny.5 mph68%29.68 "HgN/A
4:20 PM63 °FBroken clouds.6 mph64%29.68 "HgN/A
Weather by CustomWeather, © 2016

See weather overviewHow to use our weather pages